Regional Weather Roundup
Issued by NWS

Home | Current Version | Previous Version | Text Only | Print | Product List | Glossary Off
Versions: 1 2 3 4 5 6 7 8 9 10 11 12 13 14 15 16 17 18 19 20 21 22 23 24 25 26 27 28 29 30 31 32 33 34 35 36 37 38 39 40 41 42 43 44 45 46 47 48 49 50

000
ASUS45 KCYS 261210
RWRWY

WYOMING REGIONAL WEATHER ROUNDUP
NATIONAL WEATHER SERVICE CHEYENNE WY
600 AM MDT TUE AUG 26 2014

NOTE:  "FAIR" INDICATES FEW OR NO CLOUDS BELOW 12,000 FEET
WITH NO SIGNIFICANT WEATHER AND/OR OBSTRUCTIONS TO VISIBILITY.

WYZ001-261300-
YELLOWSTONE NATIONAL PARK

CITY           SKY/WX    TMP DP  RH WIND       PRES   REMARKS
LK YELLOWSTONE   N/A     38  37  97 CALM      30.31S
6HR MIN TEMP:  34; 6HR MAX TEMP:  40;

W YELLOWSTONE  NOT AVBL

$$
WYZ002>013-054>058-071-098>099-261300-
NORTHERN WYOMING

CITY           SKY/WX    TMP DP  RH WIND       PRES   REMARKS
JACKSON        CLOUDY    43  43 100 N5        30.24F
CODY           CLEAR     46  45  93 CALM      30.15S
GREYBULL       CLEAR     51  48  89 CALM      30.12R
6HR MIN TEMP:  50; 6HR MAX TEMP:  59;

WORLAND        CLEAR     49  47  93 S3        30.12R
6HR MIN TEMP:  49; 6HR MAX TEMP:  56;

SHERIDAN       PTCLDY    47  44  90 NW8       30.13R
6HR MIN TEMP:  45; 6HR MAX TEMP:  54;

BUFFALO        PTCLDY    46  44  93 W6        30.14R
6HR MIN TEMP:  46; 6HR MAX TEMP:  56; 6HR PCP: TRACE;

GILLETTE       MOCLDY    52  48  86 CALM      30.12S
6HR MIN TEMP:  47; 6HR MAX TEMP:  54;

HULETT         FAIR      46  45  93 MISG      30.14
NEWCASTLE      PTSUNNY   57  50  77 SE7       30.14

$$
WYZ014>020-022>026-101>103-261300-
CENTRAL WYOMING

CITY           SKY/WX    TMP DP  RH WIND       PRES   REMARKS
BIG PINEY      LGT RAIN  47  45  93 SE8       30.29R
6HR MIN TEMP:  42; 6HR MAX TEMP:  49; 6HR PCP:  0.02;

PINEDALE       LGT RAIN  45  43  93 SW6       30.31R
DUBOIS         FAIR      41  36  81 NW7       30.25S
LANDER         PTCLDY    50  45  83 SE3       30.17R
6HR MIN TEMP:  46; 6HR MAX TEMP:  53;

RIVERTON       PTCLDY    49  47  93 NW9       30.16F
6HR MIN TEMP:  47; 6HR MAX TEMP:  53;

CASPER         MOCLDY    49  47  93 W3        30.16R
6HR MIN TEMP:  49; 6HR MAX TEMP:  54;

DOUGLAS        CLOUDY    54  51  90 SE10      30.15S
6HR MIN TEMP:  53; 6HR MAX TEMP:  56; 6HR PCP:  0.02;


$$
WYZ021-027>030-104>119-261300-
SOUTHERN WYOMING

CITY           SKY/WX    TMP DP  RH WIND       PRES   REMARKS
EVANSTON       CLOUDY    48  45  89 CALM      30.31R
6HR MIN TEMP:  47; 6HR MAX TEMP:  52; 6HR PCP:  0.07;

KEMMERER       CLOUDY    46  45  93 N7        30.27S
FORT BRIDGER     N/A     49  46  88 N5        30.31R
ROCK SPRINGS   MOCLDY    50  46  86 W12       30.27R
6HR MIN TEMP:  49; 6HR MAX TEMP:  55;

DIXON          FAIR      51  46  80 E10       30.26R
RAWLINS        MOCLDY    49  47  93 NE6       30.24R
6HR MIN TEMP:  48; 6HR MAX TEMP:  56; 6HR PCP:  0.08;

SARATOGA       FAIR      48  45  87 MISG      30.26S
LARAMIE        PTCLDY    47  45  93 S9        30.28S
6HR MIN TEMP:  45; 6HR MAX TEMP:  55; 6HR PCP:  0.03;

CHEYENNE       PTCLDY    53  52  96 CALM      30.25F
6HR MIN TEMP:  53; 6HR MAX TEMP:  57; 6HR PCP:  0.01;

TORRINGTON     PTCLDY    54  53  97 MISG      30.15S
6HR MIN TEMP:  54; 6HR MAX TEMP:  63; 6HR PCP:  0.04;

PINE BLUFFS    FAIR      54  52  94 CALM      30.22S

$$


USA.gov is the U.S. government's official web portal to all federal, state and local government web resources and services.